Location: Beeston
(52.7000°N, 0.8167°E)
Time: 11:27:37
(UTC+00:00)

CZ-4C R/B - Pass Details

Date: 15 May 2026
Orbit: 474 x 1503 km, 63.4° (Epoch: 6 June)

Event Time Altitude Azimuth Distance (km) Brightness Sun altitude
Rises 22:41:54 0° 287° (WNW) 3,087 5.6 -16.6°
Reaches altitude 10° 22:44:18 10° 299° (WNW) 2,310 5.1 -16.7°
Maximum altitude 22:49:01 30° 0° (N) 1,572 4.3 -16.9°
Drops below altitude 10° 22:54:58 10° 60° (ENE) 2,944 5.2 -17.1°
Sets 22:58:24 0° 71° (ENE) 4,087 5.8 -17.3°
